Location: Paderno d�Adda
(45.6667°N, 9.4333°E)
Time: 06:01:10
(UTC+00:00)

Cosmos 1125 Rocket - Pass Details

Date: 26 January 2021
Orbit: 757 x 781 km, 74.0° (Epoch: 05 March)

Event Time Altitude Azimuth Distance (km) Brightness Sun altitude
Exits shadow 03:57:18 11° 2° (N) 2,245 5.9 -30.1°
Maximum altitude 04:01:22 25° 55° (NE) 1,526 5.5 -29.4°
Drops below altitude 10° 04:05:43 10° 111° (ESE) 2,333 6.8 -28.7°
Sets 04:08:30 0° 124° (SE) 3,257 7.5 -28.2°
